| time (UTC) | temp C | wind direction | speed KPH | gust KPH | rain 1hr cm | rain 24hr cm | rain mn cm | humidity % | barometer mb |
| 20260510153030 | 22 | 261 | 0.0 | 0.0 | 0.00 | 0.08 | 0.03 | 73 | 1012.8 |
| 20260510151524 | 22 | 262 | 0.0 | 0.0 | 0.00 | 0.08 | 0.03 | 69 | 1012.7 |
| 20260510150022 | 21 | 241 | 0.0 | 0.0 | 0.00 | 0.08 | 0.03 | 71 | 1012.7 |
| 20260510144523 | 20 | 230 | 0.0 | 0.0 | 0.00 | 0.08 | 0.03 | 77 | 1012.7 |
| 20260510143016 | 20 | 234 | 0.0 | 0.0 | 0.00 | 0.08 | 0.03 | 77 | 1012.8 |
| 20260510141514 | 18 | 214 | 0.0 | 0.0 | 0.00 | 0.08 | 0.03 | 82 | 1012.9 |
| 20260510140011 | 18 | 246 | 0.0 | 0.0 | 0.00 | 0.08 | 0.03 | 83 | 1012.9 |
| 20260510134507 | 17 | 215 | 0.0 | 0.0 | 0.00 | 0.08 | 0.03 | 88 | 1012.8 |
| 20260510133004 | 16 | 215 | 0.0 | 0.0 | 0.03 | 0.08 | 0.03 | 90 | 1012.8 |
| 20260510131605 | 15 | 132 | 0.0 | 0.0 | 0.03 | 0.08 | 0.03 | 92 | 1012.8 |
| 20260510130056 | 13 | 125 | 0.0 | 0.0 | 0.03 | 0.08 | 0.03 | 94 | 1012.8 |
| 20260510124609 | 12 | 181 | 0.0 | 0.0 | 0.03 | 0.08 | 0.03 | 95 | 1012.9 |
| 20260510123052 | 12 | 171 | 0.0 | 0.0 | 0.00 | 0.05 | 0.00 | 95 | 1012.8 |
| 20260510121548 | 11 | 11 | 0.0 | 0.0 | 0.00 | 0.05 | 0.00 | 95 | 1012.6 |
| 20260510120046 | 11 | 11 | 0.0 | 0.0 | 0.00 | 0.05 | 0.00 | 95 | 1012.3 |
| 20260510114544 | 11 | 11 | 0.0 | 0.0 | 0.00 | 0.05 | 0.00 | 95 | 1012.2 |
| 20260510113045 | 10 | 11 | 0.0 | 0.0 | 0.00 | 0.05 | 0.00 | 95 | 1012.1 |
| 20260510111559 | 10 | 16 | 0.0 | 0.0 | 0.00 | 0.05 | 0.00 | 95 | 1012.0 |
| 20260510110037 | 10 | 16 | 0.0 | 0.0 | 0.00 | 0.05 | 0.00 | 95 | 1011.9 |
| 20260510104541 | 9 | 16 | 0.0 | 0.0 | 0.00 | 0.05 | 0.00 | 95 | 1011.7 |
| 20260510103037 | 9 | 16 | 0.0 | 0.0 | 0.00 | 0.05 | 0.00 | 95 | 1011.5 |
| 20260510101533 | 9 | 16 | 0.0 | 0.0 | 0.00 | 0.05 | 0.00 | 95 | 1011.2 |
| 20260510100035 | 9 | 16 | 0.0 | 0.0 | 0.00 | 0.05 | 0.00 | 94 | 1011.3 |
| 20260510094533 | 9 | 16 | 0.0 | 0.0 | 0.00 | 0.05 | 0.00 | 94 | 1010.9 |
| 20260510093032 | 9 | 16 | 0.0 | 0.0 | 0.00 | 0.05 | 0.00 | 94 | 1011.0 |
| 20260510091548 | 8 | 16 | 0.0 | 0.0 | 0.00 | 0.05 | 0.00 | 94 | 1011.0 |
| 20260510090033 | 8 | 331 | 0.0 | 0.0 | 0.00 | 0.05 | 0.00 | 94 | 1011.0 |
| 20260510084531 | 8 | 329 | 0.0 | 0.0 | 0.00 | 0.05 | 0.00 | 94 | 1011.5 |
| 20260510083029 | 8 | 43 | 0.0 | 11.3 | 0.00 | 0.05 | 0.00 | 94 | 1010.9 |
| 20260510081536 | 7 | 76 | 0.0 | 0.0 | 0.00 | 0.05 | 0.00 | 94 | 1010.3 |
| 20260510080035 | 8 | 78 | 0.0 | 0.0 | 0.00 | 0.05 | 0.00 | 94 | 1010.2 |
| 20260510074529 | 8 | 78 | 0.0 | 0.0 | 0.00 | 0.05 | 0.00 | 94 | 1010.3 |
| 20260510073034 | 8 | 78 | 0.0 | 0.0 | 0.00 | 0.05 | 0.00 | 94 | 1010.2 |
| 20260510071533 | 8 | 78 | 0.0 | 0.0 | 0.00 | 0.05 | 0.00 | 94 | 1010.0 |
| 20260510070026 | 8 | 78 | 0.0 | 0.0 | 0.00 | 0.05 | 0.00 | 94 | 1009.9 |
| 20260510064546 | 8 | 78 | 0.0 | 0.0 | 0.00 | 0.05 | 0.00 | 94 | 1009.7 |
| 20260510063027 | 8 | 78 | 0.0 | 0.0 | 0.00 | 0.05 | 0.00 | 94 | 1009.7 |
| 20260510061532 | 8 | 78 | 0.0 | 0.0 | 0.00 | 0.05 | 0.00 | 94 | 1009.8 |
| 20260510060029 | 8 | 78 | 0.0 | 0.0 | 0.00 | 0.05 | 0.00 | 93 | 1009.7 |
| 20260510054517 | 9 | 78 | 0.0 | 0.0 | 0.00 | 0.05 | 0.00 | 93 | 1009.9 |
| 20260510053013 | 9 | 78 | 0.0 | 0.0 | 0.00 | 0.05 | 0.00 | 94 | 1010.0 |
| 20260510051511 | 9 | 78 | 0.0 | 0.0 | 0.00 | 0.05 | 0.00 | 93 | 1010.2 |
| 20260510050010 | 9 | 78 | 0.0 | 0.0 | 0.00 | 0.05 | 0.00 | 93 | 1010.2 |
| 20260510044509 | 10 | 78 | 0.0 | 0.0 | 0.00 | 0.05 | 0.00 | 93 | 1010.3 |
| 20260510043007 | 10 | 78 | 0.0 | 0.0 | 0.00 | 0.05 | 0.00 | 93 | 1010.3 |
| 20260510041505 | 10 | 78 | 0.0 | 0.0 | 0.00 | 0.05 | 0.00 | 93 | 1010.4 |
| 20260510040003 | 10 | 78 | 0.0 | 0.0 | 0.00 | 0.05 | 0.00 | 93 | 1010.5 |
| 20260510034502 | 10 | 78 | 0.0 | 0.0 | 0.00 | 0.05 | 0.05 | 93 | 1010.4 |
| 20260510033101 | 10 | 78 | 0.0 | 0.0 | 0.00 | 0.05 | 0.05 | 93 | 1010.4 |
| 20260510031609 | 10 | 78 | 0.0 | 0.0 | 0.00 | 0.05 | 0.05 | 93 | 1010.7 |
| 20260510030105 | 10 | 78 | 0.0 | 0.0 | 0.00 | 0.05 | 0.05 | 93 | 1010.0 |
| 20260510024557 | 11 | 78 | 0.0 | 0.0 | 0.00 | 0.05 | 0.05 | 93 | 1009.9 |
| 20260510023055 | 11 | 78 | 0.0 | 0.0 | 0.00 | 0.05 | 0.05 | 93 | 1010.2 |
| 20260510021553 | 11 | 78 | 0.0 | 0.0 | 0.00 | 0.05 | 0.05 | 92 | 1010.1 |
| 20260510020052 | 11 | 78 | 0.0 | 0.0 | 0.00 | 0.05 | 0.05 | 92 | 1009.8 |
| 20260510014552 | 11 | 78 | 0.0 | 0.0 | 0.00 | 0.05 | 0.05 | 92 | 1009.7 |
| 20260510013053 | 11 | 78 | 0.0 | 0.0 | 0.00 | 0.05 | 0.05 | 92 | 1009.8 |
| 20260510011548 | 11 | 78 | 0.0 | 0.0 | 0.00 | 0.05 | 0.05 | 92 | 1009.7 |
| 20260510010048 | 11 | 78 | 0.0 | 0.0 | 0.00 | 0.05 | 0.05 | 92 | 1009.4 |
| 20260510004547 | 11 | 78 | 0.0 | 0.0 | 0.00 | 0.05 | 0.05 | 91 | 1009.3 |
| 20260510003055 | 12 | 78 | 0.0 | 0.0 | 0.00 | 0.05 | 0.05 | 91 | 1009.3 |
| 20260510001549 | 12 | 78 | 0.0 | 0.0 | 0.00 | 0.05 | 0.05 | 90 | 1009.2 |
| 20260510000046 | 12 | 78 | 0.0 | 0.0 | 0.00 | 0.05 | 0.05 | 90 | 1009.2 |
| 20260509234600 | 13 | 78 | 0.0 | 0.0 | 0.00 | 0.05 | 0.05 | 90 | 1009.2 |
| 20260509233051 | 13 | 78 | 0.0 | 0.0 | 0.00 | 0.05 | 0.05 | 89 | 1009.3 |
| 20260509231602 | 13 | 78 | 0.0 | 0.0 | 0.00 | 0.05 | 0.05 | 88 | 1009.2 |
| 20260509230044 | 14 | 78 | 0.0 | 0.0 | 0.00 | 0.05 | 0.05 | 88 | 1009.1 |
| 20260509224542 | 14 | 78 | 0.0 | 0.0 | 0.00 | 0.05 | 0.05 | 88 | 1009.1 |
| 20260509223042 | 15 | 299 | 0.0 | 0.0 | 0.00 | 0.05 | 0.05 | 88 | 1009.3 |
| 20260509221541 | 14 | 279 | 0.0 | 0.0 | 0.00 | 0.05 | 0.05 | 89 | 1009.1 |
| 20260509220040 | 14 | 279 | 0.0 | 0.0 | 0.00 | 0.05 | 0.05 | 90 | 1009.2 |
| 20260509214540 | 13 | 279 | 0.0 | 0.0 | 0.00 | 0.05 | 0.05 | 90 | 1009.3 |
| 20260509213040 | 14 | 279 | 0.0 | 0.0 | 0.00 | 0.05 | 0.05 | 89 | 1009.2 |
| 20260509211544 | 14 | 279 | 0.0 | 0.0 | 0.00 | 0.05 | 0.05 | 89 | 1009.1 |
| 20260509210052 | 14 | 35 | 0.0 | 0.0 | 0.00 | 0.05 | 0.05 | 89 | 1009.1 |
| 20260509204538 | 14 | 35 | 0.0 | 0.0 | 0.00 | 0.05 | 0.05 | 87 | 1009.2 |
| 20260509203043 | 15 | 35 | 0.0 | 0.0 | 0.00 | 0.05 | 0.05 | 84 | 1009.4 |
| 20260509201547 | 15 | 36 | 0.0 | 9.7 | 0.00 | 0.05 | 0.05 | 83 | 1009.1 |
| 20260509200037 | 15 | 16 | 0.0 | 14.5 | 0.03 | 0.05 | 0.05 | 85 | 1009.5 |
| 20260509194536 | 14 | 13 | 0.0 | 0.0 | 0.03 | 0.05 | 0.05 | 89 | 1009.2 |
| 20260509193035 | 13 | 346 | 0.0 | 12.9 | 0.03 | 0.05 | 0.05 | 89 | 1009.7 |
| 20260509191538 | 13 | 355 | 0.0 | 0.0 | 0.03 | 0.05 | 0.05 | 89 | 1009.8 |
| 20260509190034 | 13 | 12 | 0.0 | 9.7 | 0.00 | 0.03 | 0.03 | 88 | 1010.0 |
| 20260509184539 | 14 | 306 | 0.0 | 0.0 | 0.00 | 0.03 | 0.03 | 85 | 1010.3 |
| 20260509183033 | 14 | 274 | 0.0 | 0.0 | 0.00 | 0.03 | 0.03 | 86 | 1010.4 |
| 20260509181527 | 13 | 313 | 0.0 | 0.0 | 0.00 | 0.03 | 0.03 | 86 | 1010.5 |
| 20260509180026 | 14 | 335 | 1.6 | 8.0 | 0.00 | 0.03 | 0.03 | 87 | 1010.5 |
| 20260509174526 | 14 | 321 | 0.0 | 8.0 | 0.00 | 0.03 | 0.03 | 86 | 1010.7 |
| 20260509173029 | 15 | 314 | 0.0 | 3.2 | 0.00 | 0.03 | 0.03 | 84 | 1010.7 |
| 20260509171533 | 15 | 298 | 0.0 | 0.0 | 0.00 | 0.03 | 0.03 | 84 | 1010.4 |
| 20260509170025 | 15 | 289 | 0.0 | 4.8 | 0.00 | 0.03 | 0.03 | 84 | 1010.3 |
| 20260509164524 | 16 | 348 | 0.0 | 0.0 | 0.00 | 0.03 | 0.03 | 86 | 1010.5 |
| 20260509163046 | 15 | 304 | 0.0 | 0.0 | 0.03 | 0.03 | 0.03 | 85 | 1010.4 |
| 20260509161529 | 15 | 317 | 0.0 | 0.0 | 0.03 | 0.03 | 0.03 | 85 | 1010.4 |
| 20260509160022 | 15 | 317 | 0.0 | 0.0 | 0.03 | 0.03 | 0.03 | 86 | 1010.9 |
| 20260509154532 | 15 | 312 | 0.0 | 9.7 | 0.03 | 0.03 | 0.03 | 83 | 1011.1 |